AA7VG Weather Reports


time (UTC)temp
C
wind
direction
speed
KPH
gust
KPH
rain 1hr
cm
rain 24hr
cm
rain mn
cm
humidity
%
barometer
mb
20260502205835 23 325 1.6 9.7 0.00 0.00 0.00 16 1015.5
20260502205331 23 329 3.2 12.9 0.00 0.00 0.00 15 1015.6
20260502204828 23 38 4.8 12.9 0.00 0.00 0.00 16 1015.9
20260502204325 23 343 6.4 11.3 0.00 0.00 0.00 16 1015.9
20260502203823 23 322 1.6 4.8 0.00 0.00 0.00 17 1015.9
20260502203321 22 335 6.4 11.3 0.00 0.00 0.00 16 1015.9
20260502202820 22 321 6.4 9.7 0.00 0.00 0.00 16 1016.1
20260502202319 22 276 3.2 6.4 0.00 0.00 0.00 18 1016.2
20260502201816 21 322 3.2 6.4 0.00 0.00 0.00 18 1016.2
20260502201312 22 316 6.4 11.3 0.00 0.00 0.00 17 1016.3
20260502200808 22 305 3.2 4.8 0.00 0.00 0.00 18 1016.3
20260502200304 22 266 4.8 6.4 0.00 0.00 0.00 17 1016.4
20260502195803 22 310 4.8 6.4 0.00 0.00 0.00 18 1016.6
20260502195259 22 354 1.6 4.8 0.00 0.00 0.00 18 1016.3
20260502194755 21 264 1.6 9.7 0.00 0.00 0.00 17 1016.6
20260502194253 22 306 3.2 4.8 0.00 0.00 0.00 17 1016.7
20260502193748 22 333 4.8 9.7 0.00 0.00 0.00 17 1016.6
20260502193246 21 93 1.6 4.8 0.00 0.00 0.00 19 1016.7
20260502192746 21 345 6.4 11.3 0.00 0.00 0.00 19 1016.8
20260502192244 22 23 8.0 11.3 0.00 0.00 0.00 17 1016.8
20260502191740 22 75 1.6 4.8 0.00 0.00 0.00 18 1016.8
20260502191238 22 19 6.4 6.4 0.00 0.00 0.00 19 1016.9
20260502190735 22 327 9.7 11.3 0.00 0.00 0.00 19 1016.8
20260502190233 21 274 4.8 9.7 0.00 0.00 0.00 20 1017.1
20260502185733 21 26 4.8 9.7 0.00 0.00 0.00 19 1017.1
20260502185229 21 301 3.2 6.4 0.00 0.00 0.00 20 1017.2
20260502184726 21 353 3.2 6.4 0.00 0.00 0.00 19 1017.1
20260502184221 21 101 3.2 4.8 0.00 0.00 0.00 20 1017.2
20260502183719 21 310 1.6 9.7 0.00 0.00 0.00 21 1017.4
20260502183214 20 281 6.4 9.7 0.00 0.00 0.00 22 1017.5
20260502182710 21 287 6.4 12.9 0.00 0.00 0.00 23 1017.5
20260502182205 20 316 3.2 4.8 0.00 0.00 0.00 23 1017.5
20260502181703 20 289 3.2 4.8 0.00 0.00 0.00 21 1017.6
20260502181202 20 301 3.2 12.9 0.00 0.00 0.00 20 1017.7
20260502180659 19 280 1.6 4.8 0.00 0.00 0.00 23 1017.7
20260502180156 20 323 3.2 9.7 0.00 0.00 0.00 22 1017.7
20260502170120 16 322 6.4 6.4 0.00 0.00 0.00 32 1018.3
20260502164107 17 261 3.2 6.4 0.00 0.00 0.00 30 1018.3
20260502163603 17 332 3.2 4.8 0.00 0.00 0.00 30 1018.3
20260502163059 16 343 1.6 6.4 0.00 0.00 0.00 33 1018.4
20260502162556 16 346 1.6 1.6 0.00 0.00 0.00 33 1018.5
20260502162053 16 329 4.8 6.4 0.00 0.00 0.00 32 1018.6
20260502161550 15 307 4.8 4.8 0.00 0.00 0.00 33 1018.4
20260502161048 16 8 6.4 6.4 0.00 0.00 0.00 32 1018.5
20260502160546 15 347 1.6 4.8 0.00 0.00 0.00 32 1018.5
20260502151953 14 267 0.0 1.6 0.00 0.00 0.00 32 1018.7
20260502151449 13 220 0.0 1.6 0.00 0.00 0.00 32 1018.9
20260502150947 13 240 0.0 1.6 0.00 0.00 0.00 35 1018.9
20260502150444 12 200 1.6 1.6 0.00 0.00 0.00 34 1019.2
20260502130329 3 140 0.0 0.0 0.00 0.00 0.00 59 1018.8
20260502123814 2 137 0.0 0.0 0.00 0.00 0.00 63 1018.8
20260502123312 2 137 0.0 0.0 0.00 0.00 0.00 62 1018.8
20260502122808 2 137 0.0 0.0 0.00 0.00 0.00 62 1018.8
20260502122306 2 137 0.0 0.0 0.00 0.00 0.00 61 1018.6
20260502121803 2 137 0.0 0.0 0.00 0.00 0.00 62 1018.6
20260502121300 2 138 0.0 0.0 0.00 0.00 0.00 62 1018.6
20260502120757 1 138 0.0 0.0 0.00 0.00 0.00 63 1018.5
20260502120253 1 138 0.0 0.0 0.00 0.00 0.00 63 1018.5
20260502115751 1 137 0.0 0.0 0.00 0.00 0.00 64 1018.6
20260502115248 2 137 0.0 0.0 0.00 0.00 0.00 62 1018.5
20260502114744 2 137 0.0 0.0 0.00 0.00 0.00 61 1018.4
20260502114241 2 137 0.0 0.0 0.00 0.00 0.00 60 1018.4
20260502113738 2 137 0.0 0.0 0.00 0.00 0.00 59 1018.6
20260502113236 3 138 0.0 1.6 0.00 0.00 0.00 58 1018.4
20260502112734 3 132 0.0 1.6 0.00 0.00 0.00 58 1018.4
20260502112231 2 116 0.0 0.0 0.00 0.00 0.00 61 1018.5
20260502111728 3 135 1.6 1.6 0.00 0.00 0.00 58 1018.4
20260502111226 3 143 0.0 0.0 0.00 0.00 0.00 56 1018.2
20260502110723 3 143 0.0 1.6 0.00 0.00 0.00 54 1018.2
20260502110221 4 140 0.0 1.6 0.00 0.00 0.00 53 1018.4
20260502105718 3 142 1.6 1.6 0.00 0.00 0.00 53 1018.2
20260502105214 3 142 1.6 1.6 0.00 0.00 0.00 54 1018.4
20260502104712 3 106 0.0 1.6 0.00 0.00 0.00 58 1018.3
20260502104210 2 106 1.6 1.6 0.00 0.00 0.00 59 1018.2
20260502103707 2 101 0.0 1.6 0.00 0.00 0.00 63 1018.4
20260502103205 2 99 0.0 0.0 0.00 0.00 0.00 64 1018.5
20260502102701 2 99 0.0 0.0 0.00 0.00 0.00 65 1018.3
20260502102158 2 98 0.0 0.0 0.00 0.00 0.00 64 1018.3
20260502101656 2 98 0.0 0.0 0.00 0.00 0.00 62 1018.3
20260502101154 2 98 0.0 0.0 0.00 0.00 0.00 62 1018.3
20260502100652 3 99 0.0 1.6 0.00 0.00 0.00 59 1018.2
20260502100150 4 99 0.0 1.6 0.00 0.00 0.00 54 1018.3
20260502091124 4 143 0.0 1.6 0.00 0.00 0.00 53 1018.0
20260502090621 4 139 0.0 1.6 0.00 0.00 0.00 52 1017.8
20260502090118 4 138 0.0 1.6 0.00 0.00 0.00 52 1018.0
20260502071516 7 187 0.0 0.0 0.00 0.00 0.00 43 1017.5
20260502071014 7 182 0.0 1.6 0.00 0.00 0.00 40 1017.5
20260502070511 8 152 1.6 3.2 0.00 0.00 0.00 40 1017.5
20260502070010 8 162 0.0 1.6 0.00 0.00 0.00 40 1017.6
20260502065508 8 165 1.6 3.2 0.00 0.00 0.00 38 1017.6
20260502065005 8 162 1.6 3.2 0.00 0.00 0.00 38 1017.4
20260502064503 8 150 1.6 9.7 0.00 0.00 0.00 37 1017.4
20260502064000 8 170 3.2 4.8 0.00 0.00 0.00 38 1017.4
20260502063458 8 145 3.2 3.2 0.00 0.00 0.00 38 1017.4
20260502062955 8 150 3.2 9.7 0.00 0.00 0.00 38 1017.4
20260502062452 7 148 1.6 3.2 0.00 0.00 0.00 39 1017.4
20260502061951 7 149 1.6 3.2 0.00 0.00 0.00 39 1017.6
20260502061449 7 140 1.6 3.2 0.00 0.00 0.00 39 1017.2
20260502060944 7 133 1.6 3.2 0.00 0.00 0.00 40 1017.1
20260502060440 7 147 0.0 1.6 0.00 0.00 0.00 40 1017.5
20260502055937 7 141 0.0 0.0 0.00 0.00 0.00 39 1017.5
20260502055435 7 142 1.6 3.2 0.00 0.00 0.00 38 1017.5
20260502054935 7 108 0.0 1.6 0.00 0.00 0.00 39 1017.2
20260502054432 7 113 0.0 1.6 0.00 0.00 0.00 40 1017.4
20260502053929 7 111 0.0 0.0 0.00 0.00 0.00 40 1017.4
20260502053426 8 106 1.6 3.2 0.00 0.00 0.00 41 1017.2
20260502052924 8 140 1.6 3.2 0.00 0.00 0.00 39 1017.4
20260502052422 9 105 0.0 1.6 0.00 0.00 0.00 39 1017.2
20260502051920 10 85 1.6 3.2 0.00 0.00 0.00 37 1017.2
20260502051418 10 140 3.2 4.8 0.00 0.00 0.00 35 1017.0
20260502050914 10 133 4.8 4.8 0.00 0.00 0.00 34 1017.4
20260502050411 11 159 1.6 1.6 0.00 0.00 0.00 33 1017.2
20260502045908 11 142 3.2 4.8 0.00 0.00 0.00 33 1017.4
20260502045405 11 161 1.6 4.8 0.00 0.00 0.00 34 1017.2
20260502044902 11 176 1.6 3.2 0.00 0.00 0.00 35 1017.4
20260502044357 10 151 3.2 3.2 0.00 0.00 0.00 36 1017.5
20260502043855 10 153 1.6 6.4 0.00 0.00 0.00 36 1017.2
20260502043352 10 164 1.6 3.2 0.00 0.00 0.00 37 1017.1
20260502042852 10 147 3.2 3.2 0.00 0.00 0.00 38 1017.2
20260502042349 10 159 3.2 4.8 0.00 0.00 0.00 38 1017.2
20260502041846 10 144 3.2 3.2 0.00 0.00 0.00 38 1017.1
20260502041344 11 148 0.0 3.2 0.00 0.00 0.00 38 1017.1
20260502040841 11 143 1.6 6.4 0.00 0.00 0.00 37 1017.1
20260502040338 11 145 1.6 4.8 0.00 0.00 0.00 36 1016.9
20260502035834 11 164 0.0 3.2 0.00 0.00 0.00 36 1016.9
20260502035331 11 176 1.6 6.4 0.00 0.00 0.00 35 1017.4
20260502034828 11 165 3.2 6.4 0.00 0.00 0.00 36 1017.1
20260502034326 12 143 1.6 4.8 0.00 0.00 0.00 34 1017.0
20260502033824 12 172 1.6 3.2 0.00 0.00 0.00 31 1016.9
20260502033322 12 149 1.6 3.2 0.00 0.00 0.00 30 1016.9
20260502032818 12 178 6.4 9.7 0.00 0.00 0.00 28 1016.8
20260502032314 13 138 0.0 3.2 0.00 0.00 0.00 27 1016.8
20260502031812 13 101 0.0 0.0 0.00 0.00 0.00 26 1017.0
20260502031310 13 90 0.0 0.0 0.00 0.00 0.00 25 1016.7
20260502030808 13 89 0.0 0.0 0.00 0.00 0.00 22 1016.8
20260502030306 13 89 0.0 0.0 0.00 0.00 0.00 24 1016.6
20260502025803 14 89 0.0 0.0 0.00 0.00 0.00 22 1016.6
20260502025301 14 90 0.0 0.0 0.00 0.00 0.00 24 1016.6
20260502024759 15 90 0.0 0.0 0.00 0.00 0.00 22 1016.7
20260502024256 15 89 0.0 0.0 0.00 0.00 0.00 22 1016.4
20260502023754 15 89 0.0 0.0 0.00 0.00 0.00 20 1016.3
20260502023251 16 89 0.0 0.0 0.00 0.00 0.00 20 1016.4
20260502022749 16 89 0.0 0.0 0.00 0.00 0.00 20 1016.3
20260502022245 17 90 0.0 0.0 0.00 0.00 0.00 19 1016.3
20260502021742 17 90 0.0 0.0 0.00 0.00 0.00 16 1016.4
20260502021240 17 90 0.0 0.0 0.00 0.00 0.00 16 1016.6
20260502020737 18 89 0.0 1.6 0.00 0.00 0.00 14 1016.6
20260502020234 18 100 3.2 4.8 0.00 0.00 0.00 14 1016.3
20260502015732 18 69 3.2 4.8 0.00 0.00 0.00 14 1016.6
20260502015227 18 89 4.8 6.4 0.00 0.00 0.00 13 1016.7
20260502014725 18 108 1.6 3.2 0.00 0.00 0.00 15 1016.3
20260502014222 18 80 4.8 6.4 0.00 0.00 0.00 14 1016.7
20260502013718 18 95 1.6 4.8 0.00 0.00 0.00 15 1016.6
20260502013213 19 80 1.6 3.2 0.00 0.00 0.00 15 1016.6
20260502012711 19 96 4.8 6.4 0.00 0.00 0.00 15 1016.8
20260502012209 19 100 1.6 3.2 0.00 0.00 0.00 15 1016.7
20260502011705 20 98 0.0 1.6 0.00 0.00 0.00 15 1016.9
20260502011201 19 111 0.0 1.6 0.00 0.00 0.00 15 1016.8
20260502010659 19 83 3.2 6.4 0.00 0.00 0.00 15 1016.9
20260502010155 20 79 6.4 6.4 0.00 0.00 0.00 15 1016.8
20260502005653 20 92 3.2 4.8 0.00 0.00 0.00 16 1016.7
20260502005150 20 112 1.6 4.8 0.00 0.00 0.00 16 1016.8
20260502004646 20 79 3.2 4.8 0.00 0.00 0.00 16 1016.9
20260502004143 20 92 6.4 9.7 0.00 0.00 0.00 16 1016.9
20260502003641 20 86 1.6 9.7 0.00 0.00 0.00 16 1017.0
20260502003138 20 122 1.6 4.8 0.00 0.00 0.00 16 1016.9
20260502002633 20 83 0.0 6.4 0.00 0.00 0.00 16 1016.9
20260502002131 21 117 1.6 6.4 0.00 0.00 0.00 15 1016.9
20260502001629 21 96 3.2 3.2 0.00 0.00 0.00 16 1017.0
20260502001126 21 348 3.2 6.4 0.00 0.00 0.00 15 1016.9
20260502000624 21 93 1.6 4.8 0.00 0.00 0.00 16 1017.0
20260502000121 20 0 3.2 9.7 0.00 0.00 0.00 16 1016.9
20260501235617 21 26 0.0 4.8 0.00 0.00 0.00 16 1017.1
20260501235113 21 357 4.8 4.8 0.00 0.00 0.00 15 1017.2
20260501234609 21 118 0.0 1.6 0.00 0.00 0.00 16 1017.1
20260501234106 21 40 1.6 6.4 0.00 0.00 0.00 17 1017.1
20260501233605 21 199 3.2 6.4 0.00 0.00 0.00 16 1017.4
20260501233102 21 216 4.8 4.8 0.00 0.00 0.00 16 1017.0
20260501232557 21 133 0.0 4.8 0.00 0.00 0.00 15 1017.4
20260501232055 21 140 0.0 3.2 0.00 0.00 0.00 16 1017.2
20260501231552 21 132 3.2 3.2 0.00 0.00 0.00 17 1017.6
20260501231051 21 77 3.2 6.4 0.00 0.00 0.00 16 1017.4
20260501230549 21 78 4.8 6.4 0.00 0.00 0.00 16 1017.4
20260501230047 20 300 6.4 6.4 0.00 0.00 0.00 16 1017.2
20260501225544 20 168 3.2 4.8 0.00 0.00 0.00 17 1017.6
20260501225040 20 142 4.8 4.8 0.00 0.00 0.00 16 1017.8
20260501224538 21 193 1.6 6.4 0.00 0.00 0.00 17 1017.7
20260501224034 21 95 3.2 4.8 0.00 0.00 0.00 17 1017.8
20260501223531 21 96 1.6 9.7 0.00 0.00 0.00 17 1017.7
20260501223027 21 284 1.6 4.8 0.00 0.00 0.00 16 1017.6
20260501222524 21 214 3.2 4.8 0.00 0.00 0.00 17 1018.0
20260501222020 21 21 0.0 4.8 0.00 0.00 0.00 17 1018.0
20260501221517 21 78 3.2 12.9 0.00 0.00 0.00 17 1017.9
20260501221015 21 93 4.8 9.7 0.00 0.00 0.00 17 1017.9
20260501220512 22 31 0.0 3.2 0.00 0.00 0.00 16 1018.2
20260501220009 22 335 4.8 6.4 0.00 0.00 0.00 16 1018.2
20260501215505 22 273 1.6 1.6 0.00 0.00 0.00 15 1018.2
20260501215001 21 326 3.2 4.8 0.00 0.00 0.00 15 1018.4
20260501214456 21 289 3.2 6.4 0.00 0.00 0.00 17 1018.2
20260501213952 22 304 4.8 4.8 0.00 0.00 0.00 16 1018.6
20260501213449 21 78 3.2 3.2 0.00 0.00 0.00 16 1018.6
20260501212944 21 298 1.6 4.8 0.00 0.00 0.00 17 1018.6
20260501212441 21 91 1.6 6.4 0.00 0.00 0.00 17 1018.7
20260501211938 21 0 4.8 9.7 0.00 0.00 0.00 18 1018.7
20260501211436 20 73 4.8 6.4 0.00 0.00 0.00 19 1018.5
20260501210933 20 82 3.2 4.8 0.00 0.00 0.00 19 1018.7
20260501210429 20 140 3.2 6.4 0.00 0.00 0.00 17 1018.6